[[{"header":{"parameterUnit":"m.s-1","parameterCategory":2,"la1":30.2991,"la2":30.254,"lo1":-89.0895,"lo2":-89.0444,"dy":0.0017,"dx":0.0017,"nx":28,"ny":28,"refTime":"2026-01-05T09:00:00:Z","depth":"0","parameterNumber":2,"parameterNumberName":"U-component_of_CURRENTS"},"data":[0,0,0,0,0,0,0,0,0,0,0,0,0,0,0,0,0,0,0,0,0,0,0,0,0,0,0,0,0,0,0,0,0,0,0,0,0,0,0,0,0,0,0,0,0,0,0,0,0,0,0,0,0,0,0,0,0,0,0.3243,0.3243,0,0.3225,0.3224,0.3224,0.3204,0.3204,0.3204,0.3204,0.3191,0.319,0.319,0,0,0,0,0,0,0,0,0,0,0,0,0,0.3259,0.3259,0.3243,0.3243,0.3243,0.3225,0.3224,0.3224,0.3204,0.3204,0.3204,0.3204,0.3191,0.3191,0.319,0,0,0,0,0,0,0,0,0,0,0,0,0,0.3245,0.3259,0.3243,0.3233,0.3232,0.3225,0.3224,0.3224,0.3204,0.3204,0.3204,0.3204,0.3191,0.3191,0.319,0.3187,0,0,0.3188,0.3188,0,0,0,0,0,0,0,0,0.3246,0.3244,0.3234,0.3234,0.3233,0.3219,0.3226,0.3213,0.3204,0.3211,0.3204,0.3204,0.3203,0.3201,0.3193,0.3186,0.3186,0.3188,0.3188,0.3188,0.3188,0,0,0,0,0,0,0,0.3247,0.3244,0.3232,0.3235,0.3234,0.323,0.3227,0.3223,0.3205,0.3211,0.321,0.3213,0.3202,0.3194,0.3193,0.3186,0.3188,0.3188,0.3188,0.3187,0.3197,0.3197,0,0,0,0,0,0,0.3255,0.3245,0.3233,0.3232,0.3243,0.323,0.3227,0.3221,0.3205,0.3203,0.3213,0.3212,0.3195,0.3194,0.3193,0.3219,0.3188,0.3187,0.3187,0.3196,0.3197,0.3197,0,0,0,0,0,0,0.3255,0.3254,0.3234,0.3241,0.3239,0.323,0.3223,0.3221,0.3219,0.3207,0.3205,0.3215,0.3195,0.3193,0.319,0.3217,0.3187,0.3187,0.3195,0.3196,0.3197,0.3252,0,0,0,0,0,0,0.3256,0.3254,0.3252,0.3242,0.3239,0.3237,0.3224,0.3221,0.3222,0.3221,0.3208,0.3206,0.3195,0.3191,0.319,0.3216,0.3186,0.3195,0.3196,0.3197,0.325,0.3255,0.3259,0,0,0,0,0,0.3256,0.3254,0.3252,0.3251,0.3237,0.3238,0.3236,0.3227,0.3222,0.3224,0.3212,0.3207,0.3197,0.3191,0.3189,0.3216,0.3194,0.3195,0.3197,0.3248,0.3254,0.3259,0,0,0,0,0,0,0.3261,0.3252,0.3249,0.3245,0.3246,0.3236,0.3236,0.3233,0.3224,0.3223,0.3208,0.3206,0.3219,0.3204,0.3197,0.3221,0.3198,0.3198,0.3237,0.3243,0.3247,0.3273,0.3186,0,0,0,0,0,0.3262,0.3258,0.3254,0.3252,0.3253,0.3247,0.3246,0.3243,0.3236,0.3232,0.3223,0.3217,0.3222,0.322,0.3219,0.3224,0.3264,0.3241,0.3246,0.325,0.3269,0.3351,0.3366,0.3201,0.3201,0.3201,0,0,0.3262,0.326,0.3256,0.3253,0.3251,0.3258,0.3245,0.3249,0.3258,0.3233,0.3238,0.3236,0.3228,0.324,0.3244,0.323,0.3319,0.3252,0.3256,0.3273,0.3354,0.3371,0.3386,0.3202,0.3202,0.3202,0,0,0.3266,0.326,0.326,0.3264,0.3269,0.3269,0.3274,0.327,0.3271,0.3275,0.3268,0.3281,0.3271,0.328,0.3282,0.3311,0.3346,0.3309,0.3351,0.343,0.3445,0.3459,0.3543,0.3564,0.3306,0.3306,0.3306,0,0.3271,0.3266,0.3262,0.3269,0.3276,0.3277,0.3288,0.3291,0.3288,0.3306,0.3284,0.3316,0.3297,0.3341,0.3343,0.3326,0.3381,0.333,0.344,0.3454,0.3468,0.355,0.3572,0.3309,0.3309,0.3308,0.3308,0,0.3274,0.3276,0.3279,0.3288,0.3298,0.3306,0.3318,0.3333,0.3337,0.335,0.3394,0.3379,0.3409,0.3398,0.3373,0.3457,0.347,0.3444,0.3433,0.3489,0.3571,0.3593,0.3313,0.3312,0.3311,0.331,0,0,0.3272,0.3279,0.328,0.3292,0.3309,0.332,0.3349,0.3384,0.3438,0.3432,0.3508,0.3489,0.3509,0.3512,0.35,0.3544,0.3668,0.3533,0.3535,0.363,0.3868,0.3784,0.3801,0.3673,0.3677,0.368,0.3893,0,0.3278,0.3287,0.3294,0.332,0.333,0.3355,0.3393,0.3431,0.3474,0.3551,0.3562,0.3626,0.3547,0.3588,0.3618,0.3677,0.3729,0.3614,0.3788,0.3794,0.3724,0.3823,0.3634,0.38,0.3915,0.3919,0.3922,0,0.3276,0.3287,0.33,0.3349,0.3359,0.3382,0.347,0.3509,0.3615,0.3658,0.3726,0.3764,0.3843,0.3767,0.3894,0.3834,0.3855,0.3876,0.3885,0.3805,0.3751,0.3759,0.3837,0.374,0.3956,0.3953,0.3951,0,0.3267,0.3295,0.3305,0.3315,0.337,0.3399,0.3441,0.3539,0.3617,0.3754,0.3853,0.3933,0.4013,0.4059,0.4079,0.4022,0.4226,0.4157,0.4101,0.4097,0.3967,0.3943,0.3979,0.4249,0.4249,0.4248,0.4248,0,0.3262,0.3277,0.3302,0.331,0.3374,0.3405,0.3511,0.3575,0.3717,0.3842,0.3916,0.4037,0.4092,0.42,0.4186,0.4231,0.4321,0.4148,0.4156,0.3978,0.3954,0.3885,0.3831,0.4256,0.4255,0.4253,0.4252,0,0.3255,0.3254,0.329,0.3343,0.3365,0.3417,0.3552,0.3647,0.3771,0.3952,0.4014,0.4175,0.4308,0.4355,0.4459,0.4376,0.4295,0.4397,0.4183,0.4159,0.3965,0.392,0.3847,0.374,0.4394,0.4394,0.4393,0,0.3256,0.3264,0.3318,0.3357,0.3382,0.3466,0.3541,0.366,0.377,0.4021,0.4112,0.4305,0.4399,0.4531,0.4447,0.4457,0.4305,0.4267,0.4089,0.3963,0.3923,0.3761,0.3664,0.3961,0.3957,0.3954,0.3951,0,0.3299,0.3308,0.3344,0.3398,0.3461,0.3537,0.364,0.3723,0.3884,0.4033,0.4202,0.4302,0.4414,0.4326,0.4328,0.4285,0.4051,0.4196,0.4131,0.3648,0.3413,0.3308,0.3827,0.3922,0.3924,0.3927,0.3928,0.3929,0.3357,0.3382,0.3414,0.3458,0.3526,0.3567,0.3582,0.3703,0.3829,0.396,0.4134,0.4168,0.418,0.4139,0.409,0.3863,0.3849,0.3698,0.3684,0.3555,0.3339,0.379,0.3835,0.3838,0.384,0.3842,0.3843,0,0.3414,0.3418,0.3474,0.3496,0.3523,0.3549,0.362,0.3595,0.3654,0.3791,0.388,0.3821,0.3752,0.3714,0.3535,0.3364,0.3197,0.3275,0.3014,0.2966,0.3442,0.3307,0.3158,0.3158,0.3159,0.3159,0.3159,0.3159,0.3449,0.347,0.3455,0.3464,0.3467,0.3409,0.3392,0.3369,0.3396,0.335,0.3275,0.3294,0.3347,0.331,0.3114,0.3026,0.28,0.265,0.269,0.3034,0.3071,0.3107,0.2969,0.2751,0.2751,0.206,0.2055,0.2051]},{"header":{"parameterUnit":"m.s-1","parameterCategory":2,"la1":30.2991,"la2":30.254,"lo1":-89.0895,"lo2":-89.0444,"dy":0.0017,"dx":0.0017,"nx":28,"ny":28,"refTime":"2026-01-05T09:00:00:Z","depth":"0","parameterNumber":3,"parameterNumberName":"V-component_of_CURRENTS"},"data":[0,0,0,0,0,0,0,0,0,0,0,0,0,0,0,0,0,0,0,0,0,0,0,0,0,0,0,0,0,0,0,0,0,0,0,0,0,0,0,0,0,0,0,0,0,0,0,0,0,0,0,0,0,0,0,0,0,0,0.0342,0.0342,0,0.0305,0.0304,0.0303,0.0273,0.0273,0.0272,0.0272,0.0212,0.021,0.0209,0,0,0,0,0,0,0,0,0,0,0,0,0,0.0326,0.0327,0.0342,0.0342,0.0342,0.0305,0.0304,0.0303,0.0273,0.0273,0.0272,0.0272,0.0212,0.0211,0.0209,0,0,0,0,0,0,0,0,0,0,0,0,0,0.0314,0.0327,0.0342,0.0323,0.0321,0.0305,0.0304,0.0303,0.0273,0.0273,0.0272,0.0272,0.0213,0.0211,0.0209,0.0199,0,0,0.0202,0.0201,0,0,0,0,0,0,0,0,0.0314,0.0314,0.0327,0.0325,0.0323,0.0295,0.0276,0.0268,0.0273,0.0289,0.0272,0.0272,0.0239,0.0235,0.0226,0.0197,0.0194,0.0202,0.02,0.0199,0.0199,0,0,0,0,0,0,0,0.0315,0.0315,0.0325,0.0326,0.0324,0.0296,0.0294,0.0274,0.0264,0.0288,0.0286,0.0285,0.0237,0.0228,0.0224,0.0193,0.0202,0.02,0.0198,0.0198,0.0161,0.0161,0,0,0,0,0,0,0.0328,0.0317,0.0327,0.0325,0.032,0.0297,0.0295,0.0302,0.0265,0.0259,0.0285,0.0284,0.0232,0.0227,0.0222,0.0226,0.0199,0.0197,0.0196,0.016,0.0161,0.0161,0,0,0,0,0,0,0.0328,0.0329,0.0328,0.032,0.0318,0.0298,0.0306,0.0302,0.0296,0.0263,0.0257,0.0284,0.0231,0.0225,0.0213,0.0223,0.0196,0.0194,0.016,0.016,0.0161,0.0224,0,0,0,0,0,0,0.0327,0.033,0.0336,0.0322,0.032,0.0328,0.0307,0.0301,0.0296,0.0294,0.026,0.0254,0.0231,0.0216,0.0211,0.022,0.0193,0.0159,0.016,0.0161,0.0222,0.0227,0.0231,0,0,0,0,0,0.0327,0.0343,0.0337,0.0338,0.0331,0.0329,0.0325,0.0307,0.0296,0.03,0.0278,0.0255,0.0216,0.0215,0.0208,0.0217,0.0159,0.016,0.0161,0.022,0.0226,0.0231,0,0,0,0,0,0,0.0337,0.0342,0.0334,0.035,0.0343,0.0325,0.0325,0.0313,0.0297,0.0294,0.0261,0.0254,0.0245,0.0223,0.0222,0.0207,0.0183,0.0183,0.023,0.0236,0.0241,0.0263,0.0191,0,0,0,0,0,0.0344,0.0358,0.0352,0.0363,0.0362,0.0344,0.0339,0.0329,0.0315,0.0307,0.0285,0.026,0.0242,0.0234,0.0211,0.0206,0.0196,0.0206,0.0211,0.0215,0.0228,0.0221,0.0227,0.0163,0.0163,0.0163,0,0,0.0349,0.0354,0.036,0.0365,0.0357,0.037,0.034,0.0341,0.035,0.0303,0.0306,0.0275,0.0243,0.0237,0.0231,0.0221,0.0228,0.0216,0.022,0.0231,0.0223,0.0229,0.0235,0.0164,0.0164,0.0164,0,0,0.0373,0.0373,0.0394,0.0396,0.0394,0.0386,0.0391,0.0378,0.037,0.0366,0.0335,0.0317,0.0287,0.0271,0.0257,0.0275,0.0251,0.0263,0.0309,0.0303,0.0308,0.0313,0.0313,0.0317,0.0269,0.0269,0.0269,0,0.0377,0.0411,0.0398,0.042,0.0431,0.0401,0.0428,0.0416,0.0399,0.0404,0.0376,0.0344,0.0306,0.0312,0.031,0.0288,0.0282,0.0292,0.0311,0.0315,0.0319,0.0317,0.0321,0.0272,0.0272,0.0271,0.0271,0,0.0423,0.0446,0.0459,0.0483,0.0489,0.0506,0.0496,0.0494,0.0476,0.0469,0.0464,0.0414,0.0401,0.0378,0.0345,0.0356,0.0343,0.0316,0.0301,0.0329,0.0325,0.0328,0.0276,0.0275,0.0274,0.0274,0,0,0.0442,0.0485,0.049,0.052,0.0528,0.0544,0.0555,0.0569,0.0597,0.0556,0.0594,0.0529,0.0504,0.0486,0.0443,0.0427,0.0433,0.0385,0.0383,0.0394,0.0428,0.0405,0.0405,0.0411,0.0412,0.0413,0.0417,0,0.0483,0.0551,0.0556,0.0615,0.0652,0.0635,0.0659,0.0663,0.0657,0.0682,0.0629,0.0644,0.0546,0.0552,0.0513,0.0468,0.0443,0.0435,0.0391,0.039,0.0373,0.0408,0.0411,0.0414,0.042,0.042,0.0421,0,0.0529,0.0575,0.0645,0.0706,0.072,0.0744,0.0789,0.0809,0.0822,0.0822,0.081,0.078,0.0756,0.067,0.0592,0.0594,0.0511,0.046,0.0459,0.0419,0.0372,0.0384,0.0419,0.0282,0.0425,0.0424,0.0424,0,0.0568,0.0637,0.0702,0.0722,0.0778,0.0802,0.0829,0.0851,0.09,0.0927,0.0976,0.0918,0.0922,0.0815,0.0686,0.0648,0.0608,0.0544,0.0443,0.0441,0.0426,0.0421,0.0333,0.0481,0.0481,0.0481,0.0481,0,0.0619,0.067,0.0728,0.0766,0.0852,0.0864,0.0954,0.0967,0.1027,0.1125,0.1059,0.1131,0.0957,0.0908,0.0759,0.0627,0.066,0.0467,0.0445,0.0447,0.0445,0.0309,0.0217,0.0481,0.0481,0.0481,0.0481,0,0.0654,0.0688,0.0773,0.0846,0.0874,0.0937,0.1044,0.1117,0.1158,0.1288,0.1315,0.1303,0.1252,0.1075,0.0924,0.0741,0.0526,0.0547,0.0564,0.0543,0.0295,0.0207,0.0088,0.0019,0.0439,0.0439,0.0438,0,0.0682,0.0728,0.0835,0.0897,0.0933,0.1031,0.1109,0.1174,0.1269,0.1415,0.1495,0.1488,0.1522,0.1289,0.098,0.073,0.0553,0.0528,0.0435,0.0298,0.0183,0.0114,0.0059,0.0444,0.0443,0.0443,0.0443,0,0.074,0.0773,0.0846,0.097,0.1062,0.1183,0.1299,0.1396,0.1508,0.1643,0.1804,0.1857,0.1641,0.14,0.1025,0.0828,0.0423,0.0512,0.0371,0.0183,0.0104,0.0023,0.0426,0.044,0.0441,0.0441,0.0441,0.0441,0.0784,0.0844,0.0936,0.1056,0.1168,0.1315,0.143,0.1587,0.1776,0.2008,0.2032,0.2161,0.1769,0.1277,0.0981,0.0422,0.0409,0.0241,0.0149,0.0096,0.0009,0.0408,0.0391,0.0391,0.0391,0.0391,0.0391,0,0.0841,0.0907,0.1019,0.1162,0.1293,0.1342,0.1547,0.1691,0.1939,0.2177,0.2343,0.2225,0.1765,0.1247,0.0482,0.0118,-0.0021,-0.0068,-0.0167,-0.0205,0.016,0.014,0.0069,0.0069,0.0069,0.007,0.007,0.007,0.0873,0.0976,0.103,0.1236,0.1344,0.1526,0.165,0.1887,0.2087,0.2381,0.2479,0.2519,0.2102,0.082,-0.0015,-0.0202,-0.0446,-0.0499,-0.0612,-0.0371,-0.0349,-0.0329,-0.0368,-0.0545,-0.0546,-0.0928,-0.0932,-0.0935]}],[{"header":{"parameterUnit":"m.s-1","parameterCategory":2,"la1":30.2991,"la2":30.254,"lo1":-89.0895,"lo2":-89.0444,"dy":0.0017,"dx":0.0017,"nx":28,"ny":28,"refTime":"2026-01-05T09:00:00:Z","depth":"2","parameterNumber":2,"parameterNumberName":"U-component_of_CURRENTS"},"data":[0,0,0,0,0,0,0,0,0,0,0,0,0,0,0,0,0,0,0,0,0,0,0,0,0,0,0,0,0,0,0,0,0,0,0,0,0,0,0,0,0,0,0,0,0,0,0,0,0,0,0,0,0,0,0,0,0,0,0.256,0.256,0,0.2567,0.2567,0.2567,0.2567,0.2568,0.2568,0.2568,0.2566,0.2566,0.2566,0,0,0,0,0,0,0,0,0,0,0,0,0,0.2555,0.2555,0.256,0.256,0.2561,0.2568,0.2567,0.2567,0.2567,0.2568,0.2568,0.2568,0.2566,0.2566,0.2566,0,0,0,0,0,0,0,0,0,0,0,0,0,0.2557,0.2555,0.256,0.2564,0.2564,0.2568,0.2567,0.2567,0.2567,0.2568,0.2568,0.2568,0.2566,0.2566,0.2566,0.2559,0,0,0.2565,0.2565,0,0,0,0,0,0,0,0,0.2557,0.2557,0.2563,0.2564,0.2564,0.2569,0.2565,0.2565,0.2567,0.2563,0.2568,0.2568,0.2568,0.2568,0.2564,0.2559,0.2559,0.2565,0.2564,0.2564,0.2564,0,0,0,0,0,0,0,0.2557,0.2556,0.256,0.2563,0.2564,0.2569,0.2569,0.2565,0.2562,0.2564,0.2564,0.257,0.2568,0.2565,0.2564,0.2559,0.2565,0.2564,0.2564,0.2564,0.2594,0.2595,0,0,0,0,0,0,0.2561,0.2556,0.256,0.2561,0.2564,0.2569,0.2568,0.2565,0.2562,0.2563,0.2569,0.257,0.2565,0.2565,0.2564,0.26,0.2564,0.2564,0.2564,0.2593,0.2594,0.2595,0,0,0,0,0,0,0.256,0.256,0.256,0.2561,0.2562,0.2569,0.2565,0.2565,0.2574,0.2567,0.2567,0.2579,0.2565,0.2565,0.2574,0.2598,0.2564,0.2564,0.2592,0.2593,0.2594,0.2642,0,0,0,0,0,0,0.256,0.256,0.2563,0.2561,0.2562,0.257,0.2565,0.2565,0.2577,0.2578,0.2575,0.2575,0.2565,0.2575,0.2574,0.2597,0.2563,0.259,0.2592,0.2594,0.2639,0.2645,0.265,0,0,0,0,0,0.2559,0.256,0.2563,0.2564,0.2565,0.2571,0.2572,0.2575,0.2578,0.2583,0.2584,0.2575,0.2586,0.2575,0.2574,0.2597,0.2589,0.2592,0.2594,0.2637,0.2644,0.265,0,0,0,0,0,0,0.2557,0.256,0.2564,0.2565,0.2574,0.2572,0.2579,0.2583,0.2587,0.2592,0.2582,0.2582,0.2603,0.2591,0.2579,0.2612,0.2588,0.259,0.2622,0.2628,0.2633,0.265,0.2563,0,0,0,0,0,0.2559,0.2562,0.2568,0.2571,0.2576,0.2581,0.2586,0.2591,0.2594,0.2597,0.2596,0.2599,0.2609,0.2611,0.2614,0.2625,0.2646,0.2642,0.2647,0.2652,0.2665,0.2724,0.2736,0.2602,0.2602,0.2602,0,0,0.2558,0.2563,0.2564,0.2572,0.2577,0.2589,0.2584,0.2597,0.2612,0.2596,0.2615,0.2619,0.2617,0.2636,0.2644,0.2629,0.27,0.2654,0.2658,0.267,0.2728,0.2741,0.2753,0.2604,0.2603,0.2603,0,0,0.256,0.2564,0.2568,0.2579,0.2595,0.2602,0.261,0.2619,0.2628,0.2646,0.2645,0.2666,0.2667,0.2679,0.2683,0.2718,0.2729,0.2719,0.2756,0.2812,0.2824,0.2835,0.2877,0.2891,0.2717,0.2718,0.2718,0,0.2563,0.2566,0.2572,0.2583,0.2596,0.2611,0.2624,0.2637,0.265,0.2669,0.2659,0.27,0.2692,0.2732,0.2743,0.2733,0.2763,0.2731,0.2821,0.2832,0.2842,0.2883,0.2898,0.272,0.272,0.272,0.2719,0,0.2565,0.2577,0.2582,0.2602,0.2616,0.2631,0.2653,0.2676,0.2692,0.2711,0.2758,0.2758,0.2788,0.2786,0.2772,0.2842,0.284,0.2825,0.2807,0.2859,0.2898,0.2913,0.2724,0.2723,0.2722,0.2721,0,0,0.2552,0.2579,0.2582,0.2596,0.2629,0.2639,0.2678,0.2717,0.2757,0.2779,0.2832,0.2849,0.2869,0.2875,0.2872,0.2909,0.2997,0.2899,0.2901,0.2946,0.3126,0.3055,0.3065,0.3006,0.3009,0.3011,0.3124,0,0.2556,0.2575,0.2592,0.2621,0.2634,0.2668,0.2704,0.2747,0.2787,0.2844,0.2874,0.2919,0.2898,0.292,0.2962,0.2995,0.3039,0.2968,0.3065,0.3068,0.3003,0.308,0.2818,0.2891,0.3138,0.314,0.3142,0,0.2551,0.2568,0.2589,0.2635,0.2645,0.267,0.274,0.2778,0.2865,0.2902,0.2968,0.2995,0.3067,0.3032,0.314,0.3101,0.3123,0.3139,0.3143,0.3073,0.3026,0.2879,0.2908,0.3167,0.3165,0.3163,0.3161,0,0.2529,0.2567,0.2584,0.2597,0.2651,0.2677,0.2717,0.2797,0.285,0.2951,0.3014,0.309,0.3155,0.32,0.3237,0.3204,0.335,0.3305,0.3264,0.3259,0.3051,0.3023,0.3386,0.3386,0.3385,0.3385,0.3385,0,0.2521,0.2535,0.2576,0.2585,0.2622,0.2668,0.2733,0.2789,0.2894,0.2971,0.3049,0.3121,0.3206,0.3288,0.3292,0.3339,0.3405,0.3296,0.3295,0.3059,0.3031,0.3276,0.3261,0.3389,0.3388,0.3387,0.3387,0,0.2485,0.2514,0.2535,0.2589,0.2609,0.2636,0.2733,0.2787,0.29,0.3009,0.3048,0.319,0.3297,0.3365,0.3452,0.3419,0.3449,0.344,0.3153,0.3116,0.3303,0.329,0.3412,0.3411,0.341,0.3409,0.3408,0,0.2463,0.2471,0.2522,0.2534,0.2557,0.2612,0.2656,0.2771,0.2832,0.3031,0.3075,0.3235,0.3306,0.3427,0.3397,0.3416,0.3467,0.3173,0.305,0.3325,0.3312,0.33,0.3289,0.2795,0.2789,0.2785,0.2781,0,0.2425,0.2446,0.2465,0.2488,0.2525,0.2567,0.2637,0.2677,0.2825,0.2917,0.3032,0.3109,0.3257,0.316,0.3212,0.317,0.3144,0.3078,0.3466,0.2825,0.2751,0.2735,0.2743,0.2739,0.2743,0.2746,0.2749,0.275,0.2392,0.2392,0.2418,0.2435,0.2472,0.2488,0.248,0.2559,0.2622,0.2714,0.2873,0.291,0.2974,0.2911,0.282,0.2748,0.2961,0.2807,0.2818,0.2835,0.274,0.2667,0.2622,0.2625,0.2628,0.2631,0.2633,0,0.234,0.2352,0.236,0.2366,0.2352,0.241,0.2439,0.2393,0.239,0.2525,0.2594,0.2426,0.2394,0.2454,0.2285,0.2279,0.2216,0.2174,0.2069,0.2114,0.2154,0.2019,0.1713,0.1709,0.1706,0.1703,0,0,0.2312,0.2296,0.2294,0.2241,0.2239,0.2183,0.2161,0.2108,0.2137,0.2096,0.211,0.2325,0.2415,0.2047,0.1993,0.1826,0.1947,0.1746,0.2495,0.242,0.2455,0.2543,0.2391,0,0,0,0,0]},{"header":{"parameterUnit":"m.s-1","parameterCategory":2,"la1":30.2991,"la2":30.254,"lo1":-89.0895,"lo2":-89.0444,"dy":0.0017,"dx":0.0017,"nx":28,"ny":28,"refTime":"2026-01-05T09:00:00:Z","depth":"2","parameterNumber":3,"parameterNumberName":"V-component_of_CURRENTS"},"data":[0,0,0,0,0,0,0,0,0,0,0,0,0,0,0,0,0,0,0,0,0,0,0,0,0,0,0,0,0,0,0,0,0,0,0,0,0,0,0,0,0,0,0,0,0,0,0,0,0,0,0,0,0,0,0,0,0,0,0.0282,0.0282,0,0.025,0.025,0.0249,0.0227,0.0227,0.0227,0.0227,0.0179,0.0177,0.0176,0,0,0,0,0,0,0,0,0,0,0,0,0,0.0269,0.027,0.0282,0.0282,0.0281,0.025,0.025,0.0249,0.0227,0.0227,0.0227,0.0227,0.0179,0.0177,0.0176,0,0,0,0,0,0,0,0,0,0,0,0,0,0.0259,0.027,0.0282,0.0268,0.0266,0.025,0.025,0.0249,0.0227,0.0227,0.0227,0.0227,0.0179,0.0178,0.0176,0.0166,0,0,0.017,0.0169,0,0,0,0,0,0,0,0,0.0259,0.0259,0.027,0.0269,0.0267,0.0244,0.0227,0.0221,0.0227,0.0241,0.0227,0.0227,0.02,0.0196,0.0189,0.0164,0.0162,0.017,0.0169,0.0168,0.0167,0,0,0,0,0,0,0,0.026,0.026,0.0268,0.027,0.0268,0.0244,0.0243,0.0226,0.022,0.0239,0.0238,0.0237,0.0198,0.0191,0.0187,0.0161,0.017,0.0168,0.0167,0.0166,0.0132,0.0132,0,0,0,0,0,0,0.027,0.0261,0.0269,0.0267,0.0264,0.0245,0.0243,0.025,0.022,0.0216,0.0237,0.0236,0.0194,0.019,0.0186,0.0188,0.0168,0.0166,0.0165,0.0132,0.0132,0.0132,0,0,0,0,0,0,0.027,0.0271,0.0271,0.0264,0.0262,0.0246,0.0253,0.025,0.0245,0.0219,0.0214,0.0236,0.0194,0.0188,0.0178,0.0185,0.0165,0.0164,0.0131,0.0132,0.0132,0.0182,0,0,0,0,0,0,0.027,0.0271,0.0277,0.0265,0.0263,0.0269,0.0253,0.0249,0.0244,0.0243,0.0216,0.0211,0.0193,0.0181,0.0176,0.0182,0.0162,0.0131,0.0132,0.0132,0.018,0.0184,0.0187,0,0,0,0,0,0.0269,0.0282,0.0278,0.0278,0.0273,0.027,0.0267,0.0253,0.0245,0.0247,0.023,0.0212,0.018,0.018,0.0174,0.018,0.0131,0.0131,0.0132,0.0179,0.0183,0.0187,0,0,0,0,0,0,0.0276,0.0281,0.0276,0.0288,0.0282,0.0267,0.0266,0.0257,0.0244,0.0242,0.0216,0.0211,0.0203,0.0184,0.0185,0.017,0.0152,0.0151,0.0189,0.0193,0.0197,0.0214,0.0161,0,0,0,0,0,0.0282,0.0294,0.0289,0.0297,0.0297,0.0281,0.0277,0.027,0.0258,0.0252,0.0234,0.0214,0.0199,0.0192,0.0174,0.0168,0.0147,0.0166,0.017,0.0173,0.0183,0.0159,0.0161,0.0134,0.0134,0.0134,0,0,0.0285,0.029,0.0295,0.03,0.0292,0.0302,0.0279,0.0278,0.0285,0.0248,0.025,0.0226,0.02,0.0193,0.0188,0.018,0.0169,0.0174,0.0177,0.0185,0.0159,0.0162,0.0164,0.0134,0.0134,0.0134,0,0,0.0302,0.0304,0.0321,0.0323,0.0321,0.0315,0.0318,0.0307,0.03,0.0297,0.0273,0.0257,0.0233,0.0219,0.0208,0.022,0.0187,0.021,0.0244,0.022,0.0222,0.0224,0.0198,0.0197,0.0213,0.0213,0.0213,0,0.0304,0.0331,0.0323,0.0341,0.035,0.0326,0.0347,0.0337,0.0323,0.0325,0.0305,0.0274,0.0247,0.0246,0.0247,0.0229,0.0208,0.0231,0.0226,0.0227,0.0228,0.02,0.0199,0.0215,0.0215,0.0215,0.0215,0,0.0338,0.0358,0.0368,0.0389,0.0394,0.0407,0.04,0.0397,0.0383,0.0376,0.0367,0.0328,0.0313,0.0296,0.0274,0.027,0.025,0.0233,0.0218,0.0234,0.0204,0.0201,0.0219,0.0218,0.0217,0.0217,0,0,0.035,0.0387,0.0391,0.0416,0.0425,0.0437,0.0445,0.0454,0.0473,0.0439,0.0456,0.0412,0.0389,0.0375,0.0341,0.0316,0.0295,0.028,0.0278,0.026,0.024,0.0211,0.0205,0.0276,0.0276,0.0275,0.0215,0,0.038,0.0435,0.0441,0.0489,0.0518,0.0507,0.0525,0.0527,0.0519,0.0527,0.0479,0.0479,0.0421,0.0415,0.038,0.0324,0.0291,0.0313,0.0222,0.022,0.0197,0.0202,0.0219,0.0165,0.0212,0.0212,0.0211,0,0.0414,0.0452,0.0509,0.0559,0.057,0.059,0.0623,0.064,0.0636,0.0631,0.0611,0.0572,0.0535,0.048,0.0387,0.0404,0.0326,0.0272,0.0268,0.0224,0.0187,0.0156,0.0158,0.0206,0.0207,0.0207,0.0207,0,0.0444,0.0499,0.0553,0.0569,0.0616,0.0635,0.0658,0.0671,0.0709,0.07,0.0723,0.0657,0.0644,0.0537,0.0413,0.0401,0.0306,0.0275,0.0173,0.017,0.0158,0.0154,0.0201,0.0201,0.0202,0.0202,0.0202,0,0.0482,0.0524,0.0572,0.0604,0.0672,0.0684,0.0756,0.0761,0.0799,0.0866,0.0786,0.0811,0.0658,0.0581,0.0447,0.0308,0.0328,0.0183,0.0155,0.0175,0.0173,0.019,0.0189,0.0199,0.02,0.02,0.0201,0,0.0507,0.0538,0.0607,0.0667,0.0691,0.0741,0.0832,0.0892,0.0908,0.099,0.0993,0.0936,0.0836,0.0669,0.0504,0.037,0.0226,0.0165,0.0196,0.0173,0.0094,0.0096,0.0049,0.0047,0.0046,0.0045,0.0044,0,0.0526,0.0565,0.0655,0.071,0.074,0.0822,0.0893,0.0942,0.1019,0.1075,0.1125,0.1045,0.1011,0.0747,0.0494,0.0254,0.0221,0.0098,0.0071,0.0102,0.0079,0.0084,0.0088,0.0072,0.0072,0.0071,0.0071,0,0.0567,0.0597,0.066,0.0772,0.0854,0.096,0.1061,0.1139,0.1216,0.1274,0.133,0.1299,0.1056,0.0813,0.0474,0.0303,0.0135,0.008,0.0112,0.0109,0.0119,0.0098,0.0103,0.0067,0.0067,0.0068,0.0068,0.0068,0.0599,0.0649,0.0737,0.0845,0.0947,0.1083,0.1182,0.1295,0.1417,0.1515,0.1479,0.1439,0.1157,0.0725,0.0426,0.0105,0.0122,0.0002,0.0005,0.0009,0.0023,0.0031,-0.0036,-0.0036,-0.0036,-0.0036,-0.0036,0,0.0646,0.071,0.0809,0.0944,0.1064,0.1113,0.129,0.1387,0.1533,0.1609,0.1642,0.1364,0.1092,0.0767,0.0299,0.0019,-0.0003,-0.0081,-0.0038,-0.0032,-0.0027,-0.0014,-0.0084,-0.0084,-0.0085,-0.0086,0,0,0.0674,0.0774,0.0826,0.1018,0.1118,0.1288,0.1394,0.1522,0.161,0.1668,0.1647,0.1592,0.1198,0.0849,0.0465,0.0198,0.0145,0.0134,0.0201,0.0303,0.0312,0.0047,0.0078,0,0,0,0,0]}],[{"header":{"parameterUnit":"m.s-1","parameterCategory":2,"la1":30.2991,"la2":30.254,"lo1":-89.0895,"lo2":-89.0444,"dy":0.0017,"dx":0.0017,"nx":28,"ny":28,"refTime":"2026-01-05T09:00:00:Z","depth":"4","parameterNumber":2,"parameterNumberName":"U-component_of_CURRENTS"},"data":[0,0,0,0,0,0,0,0,0,0,0,0,0,0,0,0,0,0,0,0,0,0,0,0,0,0,0,0,0,0,0,0,0,0,0,0,0,0,0,0,0,0,0,0,0,0,0,0,0,0,0,0,0,0,0,0,0,0,0.1647,0.1647,0,0.1698,0.1699,0.1699,0.175,0.1751,0.1752,0.1753,0.1812,0.1813,0.1814,0,0,0,0,0,0,0,0,0,0,0,0,0,0.1591,0.1592,0.1647,0.1647,0.1648,0.1698,0.1699,0.1699,0.175,0.1751,0.1752,0.1753,0.1812,0.1813,0.1814,0,0,0,0,0,0,0,0,0,0,0,0,0,0.1624,0.1592,0.1646,0.1681,0.1685,0.1698,0.1699,0.1699,0.175,0.1751,0.1752,0.1754,0.1812,0.1813,0.1814,0.1795,0,0,0.1818,0.1818,0,0,0,0,0,0,0,0,0.1622,0.1626,0.1675,0.1679,0.1683,0.1721,0.1701,0.1733,0.1749,0.1723,0.1753,0.1754,0.1783,0.1786,0.179,0.1798,0.18,0.1818,0.1818,0.1819,0.1819,0,0,0,0,0,0,0,0.162,0.1624,0.1665,0.1676,0.1681,0.1694,0.17,0.1707,0.1743,0.1725,0.173,0.1738,0.1785,0.1789,0.1792,0.1801,0.1818,0.1819,0.1819,0.182,0.1905,0.1907,0,0,0,0,0,0,0.1616,0.1622,0.1663,0.1667,0.1658,0.1694,0.1701,0.1706,0.1743,0.1751,0.1737,0.1741,0.1786,0.1791,0.1794,0.1869,0.1819,0.182,0.1821,0.1904,0.1906,0.1907,0,0,0,0,0,0,0.1615,0.1619,0.1661,0.1647,0.1654,0.1694,0.1699,0.1706,0.1747,0.1753,0.176,0.1775,0.1787,0.1793,0.1835,0.1868,0.182,0.1821,0.1902,0.1904,0.1906,0.1958,0,0,0,0,0,0,0.1613,0.1618,0.1639,0.1647,0.1655,0.169,0.1698,0.1706,0.1749,0.1755,0.1787,0.1792,0.1789,0.1833,0.1836,0.1869,0.1822,0.19,0.1903,0.1906,0.1954,0.1961,0.1968,0,0,0,0,0,0.1611,0.1624,0.1639,0.1645,0.1675,0.1691,0.1697,0.1728,0.175,0.1769,0.1797,0.1792,0.1854,0.1835,0.1838,0.1872,0.1898,0.1902,0.1905,0.1951,0.196,0.1968,0,0,0,0,0,0,0.161,0.1631,0.1647,0.1668,0.1691,0.1701,0.1728,0.1746,0.1783,0.1802,0.1808,0.1814,0.1865,0.1861,0.184,0.1907,0.1877,0.1881,0.1911,0.1919,0.1926,0.1932,0.1823,0,0,0,0,0,0.1619,0.1639,0.1656,0.1678,0.1692,0.1717,0.1736,0.1757,0.1781,0.1801,0.1824,0.1851,0.1875,0.1893,0.191,0.1941,0.1948,0.1967,0.1974,0.198,0.1988,0.2033,0.2044,0.1919,0.1919,0.1919,0,0,0.1625,0.1641,0.1654,0.1681,0.1703,0.1725,0.1732,0.177,0.1799,0.18,0.1859,0.1878,0.189,0.193,0.1952,0.1936,0.202,0.1985,0.1989,0.1994,0.2038,0.205,0.2061,0.1921,0.1921,0.192,0,0,0.1636,0.1664,0.1682,0.1703,0.1742,0.1756,0.1775,0.1807,0.1838,0.1884,0.1899,0.1942,0.1975,0.1991,0.2001,0.2056,0.2057,0.2068,0.2107,0.215,0.2161,0.217,0.2194,0.2205,0.207,0.207,0.207,0,0.1649,0.1669,0.1691,0.1713,0.1737,0.1774,0.1798,0.1828,0.1875,0.1905,0.1915,0.1992,0.2003,0.2051,0.2074,0.2073,0.2093,0.2072,0.2159,0.2169,0.2177,0.2199,0.2211,0.2073,0.2072,0.2072,0.2072,0,0.1659,0.1693,0.1707,0.1747,0.1775,0.1805,0.1842,0.1888,0.1933,0.1962,0.2036,0.2058,0.2106,0.2116,0.2113,0.2183,0.2176,0.2163,0.2136,0.2193,0.2212,0.2224,0.2077,0.2076,0.2075,0.2074,0,0,0.1644,0.1703,0.1714,0.1741,0.1799,0.1817,0.1877,0.1932,0.1982,0.204,0.2103,0.2152,0.2183,0.2196,0.2206,0.2241,0.2317,0.2236,0.2236,0.2255,0.2412,0.2254,0.225,0.2327,0.2329,0.2331,0.2399,0,0.1652,0.1694,0.1726,0.1778,0.1802,0.1858,0.1906,0.1967,0.2026,0.2096,0.2145,0.2209,0.2207,0.2244,0.2283,0.2312,0.235,0.2299,0.2356,0.2358,0.2208,0.2259,0.2339,0.2407,0.241,0.2412,0.2413,0,0.1647,0.1679,0.1728,0.1796,0.1814,0.1856,0.1947,0.1997,0.2097,0.2148,0.2228,0.2269,0.2347,0.2331,0.2422,0.2395,0.2415,0.2427,0.243,0.2271,0.222,0.234,0.2433,0.2431,0.243,0.2428,0.2427,0,0.1609,0.1679,0.1721,0.1744,0.1825,0.1871,0.1926,0.2021,0.2076,0.2196,0.2251,0.2343,0.2406,0.2453,0.2493,0.2473,0.2576,0.2546,0.2421,0.241,0.2509,0.2498,0.261,0.261,0.261,0.261,0.261,0,0.1585,0.1622,0.1714,0.1734,0.1792,0.1862,0.1942,0.2009,0.212,0.218,0.2284,0.234,0.2446,0.2511,0.2527,0.2508,0.2612,0.2435,0.242,0.2528,0.2519,0.2516,0.2505,0.2612,0.2612,0.2611,0.2611,0,0.1526,0.1591,0.164,0.1738,0.1774,0.1817,0.1938,0.1988,0.211,0.2194,0.2239,0.2374,0.2453,0.2528,0.2607,0.2536,0.2539,0.2508,0.2627,0.2616,0.2333,0.2324,0.2361,0.2356,0.2352,0.2348,0.2346,0,0.1492,0.1515,0.1626,0.1656,0.1706,0.1788,0.1838,0.1968,0.2017,0.2187,0.2207,0.2344,0.2414,0.2403,0.2492,0.251,0.2482,0.2458,0.2381,0.2328,0.231,0.2307,0.2303,0.2339,0.2338,0.2337,0.2336,0,0.1418,0.1477,0.1517,0.1584,0.1643,0.1692,0.1776,0.1801,0.1943,0.2079,0.2125,0.2167,0.2253,0.2307,0.2346,0.2351,0.2454,0.2414,0.2421,0.2348,0.2301,0.2287,0.2289,0.2321,0.2323,0.2324,0.2325,0,0.1364,0.1373,0.144,0.1483,0.1552,0.1562,0.1625,0.1679,0.1747,0.1931,0.1947,0.2091,0.2231,0.2226,0.226,0.2256,0.2212,0.212,0.2142,0.2159,0.206,0.1969,0.1879,0,0,0,0,0,0.1297,0.1294,0.1328,0.1359,0.1423,0.1463,0.1561,0.1629,0.1775,0.1756,0.1845,0.1912,0.1964,0.2045,0.2001,0.2166,0.2219,0.2102,0.2123,0.224,0.2257,0.2158,0,0,0,0,0,0,0.1247,0.1278,0.1285,0.1246,0.1252,0.1298,0.1357,0.1456,0.1456,0.1619,0.1667,0.1787,0.1879,0.1975,0.1964,0.1986,0.1955,0.2199,0.2193,0.2231,0.2246,0.226,0.2164,0,0,0,0,0]},{"header":{"parameterUnit":"m.s-1","parameterCategory":2,"la1":30.2991,"la2":30.254,"lo1":-89.0895,"lo2":-89.0444,"dy":0.0017,"dx":0.0017,"nx":28,"ny":28,"refTime":"2026-01-05T09:00:00:Z","depth":"4","parameterNumber":3,"parameterNumberName":"V-component_of_CURRENTS"},"data":[0,0,0,0,0,0,0,0,0,0,0,0,0,0,0,0,0,0,0,0,0,0,0,0,0,0,0,0,0,0,0,0,0,0,0,0,0,0,0,0,0,0,0,0,0,0,0,0,0,0,0,0,0,0,0,0,0,0,0.0235,0.0235,0,0.0219,0.0219,0.0219,0.0211,0.0211,0.0211,0.0211,0.0185,0.0184,0.0183,0,0,0,0,0,0,0,0,0,0,0,0,0,0.0221,0.0222,0.0235,0.0235,0.0235,0.0219,0.0219,0.0219,0.0211,0.0211,0.0211,0.0211,0.0185,0.0184,0.0183,0,0,0,0,0,0,0,0,0,0,0,0,0,0.0218,0.0222,0.0235,0.023,0.0229,0.0219,0.0219,0.0218,0.0211,0.0211,0.0211,0.0211,0.0185,0.0184,0.0183,0.0174,0,0,0.0179,0.0179,0,0,0,0,0,0,0,0,0.0218,0.0219,0.0231,0.023,0.023,0.0218,0.0204,0.0203,0.0211,0.0217,0.0211,0.0212,0.0195,0.0193,0.0189,0.0172,0.0171,0.0179,0.0179,0.0178,0.0178,0,0,0,0,0,0,0,0.0219,0.0219,0.0228,0.0231,0.023,0.0215,0.0215,0.0204,0.0205,0.0217,0.0216,0.0216,0.0195,0.019,0.0188,0.0171,0.0179,0.0178,0.0177,0.0177,0.0156,0.0156,0,0,0,0,0,0,0.0224,0.0219,0.0229,0.0228,0.0225,0.0215,0.0215,0.0221,0.0205,0.0203,0.0215,0.0215,0.0192,0.019,0.0187,0.0193,0.0178,0.0177,0.0176,0.0156,0.0156,0.0156,0,0,0,0,0,0,0.0224,0.0225,0.0229,0.0223,0.0223,0.0216,0.0222,0.0221,0.0221,0.0205,0.0202,0.0219,0.0192,0.0189,0.0186,0.0192,0.0176,0.0175,0.0155,0.0156,0.0156,0.0194,0,0,0,0,0,0,0.0223,0.0225,0.0232,0.0224,0.0223,0.023,0.0222,0.022,0.0221,0.022,0.0206,0.0204,0.0192,0.0188,0.0184,0.019,0.0174,0.0155,0.0155,0.0156,0.0192,0.0195,0.0197,0,0,0,0,0,0.0223,0.0233,0.0232,0.0233,0.0232,0.0231,0.0229,0.0224,0.0221,0.0224,0.0216,0.0205,0.0187,0.0187,0.0183,0.0188,0.0155,0.0155,0.0156,0.0191,0.0194,0.0197,0,0,0,0,0,0,0.0228,0.0233,0.0232,0.0242,0.024,0.023,0.0232,0.0228,0.0223,0.0224,0.0208,0.0205,0.0203,0.019,0.019,0.0182,0.0168,0.0168,0.0196,0.0199,0.0202,0.0213,0.0173,0,0,0,0,0,0.0233,0.0243,0.0241,0.0249,0.0249,0.0241,0.024,0.0237,0.0231,0.023,0.022,0.0209,0.02,0.0196,0.0185,0.0182,0.016,0.0181,0.0184,0.0186,0.0193,0.0164,0.0165,0.0157,0.0157,0.0157,0,0,0.0235,0.024,0.0245,0.0251,0.0248,0.0256,0.0241,0.0243,0.0251,0.0227,0.0234,0.0218,0.0201,0.0199,0.0196,0.019,0.0176,0.0187,0.0189,0.0194,0.0165,0.0166,0.0166,0.0157,0.0157,0.0157,0,0,0.0247,0.0252,0.0265,0.0268,0.027,0.0267,0.027,0.0265,0.0264,0.0266,0.0251,0.0242,0.0228,0.0218,0.0211,0.022,0.0191,0.0214,0.0238,0.0211,0.0211,0.0212,0.0178,0.0175,0.0216,0.0216,0.0216,0,0.025,0.0271,0.0267,0.0281,0.0289,0.0276,0.0292,0.0288,0.0282,0.0285,0.0274,0.0255,0.0238,0.0237,0.0239,0.0227,0.0204,0.0229,0.0215,0.0214,0.0214,0.018,0.0176,0.0218,0.0218,0.0218,0.0217,0,0.0273,0.0291,0.0298,0.0317,0.0322,0.0333,0.0331,0.0333,0.0328,0.0324,0.032,0.0294,0.0285,0.0273,0.026,0.0251,0.0233,0.0221,0.0208,0.0217,0.0181,0.0176,0.0221,0.022,0.0219,0.0219,0,0,0.0277,0.031,0.0314,0.0334,0.0345,0.0355,0.0365,0.0374,0.039,0.0369,0.038,0.0354,0.0339,0.0329,0.0306,0.0279,0.0251,0.0252,0.025,0.0223,0.0184,0.0161,0.0153,0.0236,0.0235,0.0235,0.0157,0,0.0297,0.0339,0.0347,0.0385,0.0408,0.0405,0.0423,0.0427,0.0424,0.043,0.0395,0.0397,0.0361,0.036,0.0326,0.0275,0.0241,0.0272,0.0176,0.0174,0.0155,0.0148,0.0234,0.0154,0.0153,0.0152,0.0151,0,0.0318,0.0348,0.0393,0.0435,0.0445,0.0464,0.0494,0.051,0.0508,0.0506,0.0491,0.0464,0.0429,0.0395,0.0304,0.0326,0.026,0.021,0.0206,0.017,0.0143,0.0143,0.0142,0.0143,0.0144,0.0144,0.0145,0,0.0333,0.0379,0.0421,0.0435,0.0477,0.0497,0.052,0.0535,0.0565,0.0558,0.0568,0.0517,0.0501,0.0411,0.0306,0.0306,0.0196,0.0182,0.0095,0.0093,0.012,0.0121,0.0112,0.0112,0.0112,0.0112,0.0112,0,0.0353,0.0387,0.0435,0.0459,0.0517,0.0533,0.0594,0.0601,0.0631,0.067,0.0616,0.062,0.0505,0.0428,0.0321,0.0194,0.0204,0.0098,0.0072,0.0137,0.014,0.0116,0.0118,0.0109,0.011,0.011,0.0111,0,0.0362,0.0392,0.0447,0.0504,0.0528,0.0571,0.0654,0.0701,0.0712,0.0756,0.0757,0.0702,0.0599,0.0466,0.032,0.0223,0.0097,0.0046,0.0122,0.0102,0.0006,0.001,-0.0055,-0.0057,-0.0058,-0.0059,-0.006,0,0.0371,0.0401,0.0483,0.053,0.056,0.0635,0.0696,0.074,0.0792,0.0805,0.0825,0.0743,0.0682,0.0462,0.0314,0.0099,0.0066,-0.0007,-0.0001,0.0008,-0.0011,-0.0005,0.0001,-0.0062,-0.0062,-0.0062,-0.0063,0,0.0389,0.042,0.0471,0.0568,0.064,0.073,0.0811,0.0853,0.0901,0.0906,0.0882,0.0764,0.0643,0.0468,0.0297,0.0143,0.0037,-0.002,-0.0018,-0.0014,-0.0001,-0.0017,-0.001,-0.0067,-0.0066,-0.0066,-0.0066,0,0.0406,0.0444,0.0518,0.0604,0.0699,0.0793,0.0839,0.0897,0.0944,0.0945,0.0935,0.0796,0.0723,0.049,0.0335,0.0177,0.0135,0.0079,0.0074,0.0077,0.0133,0.017,0.0134,0,0,0,0,0,0.0423,0.0472,0.0552,0.065,0.0747,0.0807,0.0904,0.0945,0.0979,0.097,0.0955,0.0838,0.0607,0.0514,0.0353,0.0302,0.0101,0.0105,0.0033,-0.009,-0.0085,-0.0044,0,0,0,0,0,0,0.0437,0.051,0.0549,0.0673,0.0747,0.0861,0.0928,0.0958,0.0956,0.0956,0.0844,0.0781,0.0566,0.0696,0.0344,0.0297,0.0225,0.0,-0.0004,-0.0093,-0.0088,-0.0085,-0.0041,0,0,0,0,0]}]]